Terminal Aerodrome Forecast
Issued by NWS

Home | Current Version | Previous Version | Text Only | Print | Product List | Glossary On
Versions: 1 2 3 4 5 6 7 8 9 10 11 12 13 14 15 16 17 18 19 20 21 22 23 24 25 26 27 28 29 30 31 32 33 34 35 36 37 38 39 40 41 42 43 44 45 46 47 48 49 50
000
FTAK31 PANC 260711 AAA
TAFASN
TAF AMD
PASN 260711Z 2607/2706 31010KT 1SM BR OVC002
      TEMPO 2608/2612 1/2SM FG
     FM261200 29008KT 1/2SM FG VV002
     FM262100 32015KT 4SM BR OVC008=

USA.gov is the U.S. government's official web portal to all federal, state and local government web resources and services.